Search for airport 
image banner adimage banner ad
image banner ad

DAAE - Bejaia / Soummam-Abane Ramdane

Located in Bejaia, Algeria

ICAO - DAAE, IATA - BJA

Data provided by Airmate  

General information

Coordinates: N36°42'43" E5°4'10"
Elevation is 19 feet MSL.
 
View others Airports in Béjaïa Province

Operational data

Open for public use
Current time UTC:
Current local time:
Weather
METAR: DAAE 290100Z 26006KT CAVOK 15/12 Q1018
TAF: TAF DAAE 282300Z 2900/2924 23005KT CAVOK BECMG 2910/2912 07010KT BECMG 2916/2918 14006KT
View NOTAMs / SUP AIP / TFR affecting this airport [VIEW]
Communications frequencies: [VIEW]

Runways:

RWY identifierQFULength (ft)Width (ft)SurfaceLDA (ft)
0882°7874148ASP
26262°7874148

Airport contact information

Address: Bejaia Algeria

Satellite view of DAAE